Location: A�t �Alizem
(31.2076°N, 8.7872°W)
Time: 06:32:42
(UTC+00:00)

Cosmos 1602 - Pass Details

Date: 27 November 2020
Orbit: 512 x 534 km, 82.5° (Epoch: 25 January)

Event Time Altitude Azimuth Distance (km) Brightness Sun altitude
Rises 18:32:59 0° 4° (N) 2,677 7.1 -12.9°
Reaches altitude 10° 18:35:16 10° 13° (NNE) 1,780 6.1 -13.3°
Maximum altitude 18:38:54 36° 81° (E) 843 4.2 -14.1°
Drops below altitude 10° 18:42:29 10° 149° (SSE) 1,758 6.2 -14.8°
Sets 18:44:43 0° 158° (SSE) 2,638 7.2 -15.3°
